| time (UTC) | temp F | wind direction | speed knots | gust knots | rain 1hr in | rain 24hr in | rain mn in | humidity % | barometer mb |
| 20260507224229 | 96 | 232 | 0.9 | 5.2 | 0.00 | 0.00 | 0.00 | 12 | 1011.3 |
| 20260507223725 | 97 | 292 | 3.5 | 7.0 | 0.00 | 0.00 | 0.00 | 12 | 1011.3 |
| 20260507223222 | 97 | 303 | 3.5 | 6.1 | 0.00 | 0.00 | 0.00 | 12 | 1011.5 |
| 20260507222719 | 99 | 81 | 1.7 | 6.1 | 0.00 | 0.00 | 0.00 | 12 | 1011.4 |
| 20260507222215 | 98 | 236 | 0.9 | 6.1 | 0.00 | 0.00 | 0.00 | 12 | 1011.5 |
| 20260507221712 | 98 | 280 | 0.9 | 2.6 | 0.00 | 0.00 | 0.00 | 12 | 1011.5 |
| 20260507221209 | 97 | 240 | 0.9 | 1.7 | 0.00 | 0.00 | 0.00 | 12 | 1011.4 |
| 20260507220705 | 96 | 317 | 2.6 | 5.2 | 0.00 | 0.00 | 0.00 | 12 | 1011.7 |
| 20260507220204 | 96 | 311 | 2.6 | 5.2 | 0.00 | 0.00 | 0.00 | 12 | 1011.5 |
| 20260507215659 | 97 | 303 | 3.5 | 5.2 | 0.00 | 0.00 | 0.00 | 12 | 1011.8 |
| 20260507215157 | 97 | 247 | 1.7 | 6.1 | 0.00 | 0.00 | 0.00 | 12 | 1011.7 |
| 20260507214654 | 97 | 315 | 1.7 | 2.6 | 0.00 | 0.00 | 0.00 | 12 | 1011.9 |
| 20260507214150 | 95 | 344 | 2.6 | 3.5 | 0.00 | 0.00 | 0.00 | 12 | 1011.9 |
| 20260507213646 | 96 | 4 | 2.6 | 6.1 | 0.00 | 0.00 | 0.00 | 12 | 1011.9 |
| 20260507213144 | 97 | 3 | 3.5 | 6.1 | 0.00 | 0.00 | 0.00 | 12 | 1012.1 |
| 20260507212640 | 97 | 221 | 2.6 | 3.5 | 0.00 | 0.00 | 0.00 | 11 | 1012.0 |
| 20260507212137 | 97 | 235 | 1.7 | 7.8 | 0.00 | 0.00 | 0.00 | 12 | 1012.2 |
| 20260507211634 | 97 | 234 | 0.9 | 1.7 | 0.00 | 0.00 | 0.00 | 11 | 1012.3 |
| 20260507211129 | 98 | 238 | 1.7 | 1.7 | 0.00 | 0.00 | 0.00 | 12 | 1012.3 |
| 20260507210627 | 96 | 91 | 1.7 | 5.2 | 0.00 | 0.00 | 0.00 | 12 | 1012.4 |
| 20260507210123 | 96 | 144 | 1.7 | 6.1 | 0.00 | 0.00 | 0.00 | 13 | 1012.6 |
| 20260507205620 | 96 | 254 | 2.6 | 3.5 | 0.00 | 0.00 | 0.00 | 13 | 1012.7 |
| 20260507205117 | 94 | 191 | 0.9 | 3.5 | 0.00 | 0.00 | 0.00 | 13 | 1012.8 |
| 20260507204613 | 95 | 163 | 1.7 | 7.0 | 0.00 | 0.00 | 0.00 | 12 | 1012.8 |
| 20260507204110 | 96 | 177 | 1.7 | 3.5 | 0.00 | 0.00 | 0.00 | 13 | 1012.9 |
| 20260507203608 | 95 | 14 | 0.9 | 3.5 | 0.00 | 0.00 | 0.00 | 12 | 1012.9 |
| 20260507203106 | 95 | 145 | 0.9 | 3.5 | 0.00 | 0.00 | 0.00 | 13 | 1012.9 |
| 20260507202601 | 94 | 154 | 0.9 | 5.2 | 0.00 | 0.00 | 0.00 | 13 | 1013.0 |
| 20260507202058 | 95 | 143 | 1.7 | 3.5 | 0.00 | 0.00 | 0.00 | 13 | 1013.3 |
| 20260507201553 | 94 | 149 | 4.3 | 6.1 | 0.00 | 0.00 | 0.00 | 13 | 1013.3 |
| 20260507201050 | 94 | 232 | 0.9 | 2.6 | 0.00 | 0.00 | 0.00 | 13 | 1013.5 |
| 20260507200545 | 94 | 200 | 2.6 | 5.2 | 0.00 | 0.00 | 0.00 | 14 | 1013.5 |
| 20260507200042 | 93 | 161 | 2.6 | 5.2 | 0.00 | 0.00 | 0.00 | 13 | 1013.6 |
| 20260507195539 | 94 | 214 | 1.7 | 5.2 | 0.00 | 0.00 | 0.00 | 13 | 1013.7 |
| 20260507195037 | 93 | 236 | 0.9 | 6.1 | 0.00 | 0.00 | 0.00 | 14 | 1013.8 |
| 20260507194532 | 93 | 202 | 0.9 | 2.6 | 0.00 | 0.00 | 0.00 | 14 | 1013.8 |
| 20260507194029 | 93 | 156 | 2.6 | 3.5 | 0.00 | 0.00 | 0.00 | 14 | 1013.9 |
| 20260507193526 | 92 | 189 | 2.6 | 5.2 | 0.00 | 0.00 | 0.00 | 15 | 1013.9 |
| 20260507193023 | 92 | 200 | 3.5 | 5.2 | 0.00 | 0.00 | 0.00 | 14 | 1014.2 |
| 20260507192519 | 93 | 213 | 2.6 | 6.1 | 0.00 | 0.00 | 0.00 | 15 | 1014.2 |
| 20260507192016 | 92 | 320 | 1.7 | 2.6 | 0.00 | 0.00 | 0.00 | 14 | 1014.3 |
| 20260507191511 | 92 | 257 | 1.7 | 3.5 | 0.00 | 0.00 | 0.00 | 14 | 1014.4 |
| 20260507191008 | 91 | 50 | 0.9 | 3.5 | 0.00 | 0.00 | 0.00 | 15 | 1014.5 |
| 20260507190506 | 92 | 154 | 3.5 | 5.2 | 0.00 | 0.00 | 0.00 | 15 | 1014.6 |
| 20260507190005 | 92 | 143 | 0.9 | 2.6 | 0.00 | 0.00 | 0.00 | 16 | 1014.6 |
| 20260507185502 | 91 | 158 | 0.9 | 3.5 | 0.00 | 0.00 | 0.00 | 16 | 1014.5 |
| 20260507184958 | 91 | 179 | 1.7 | 7.0 | 0.00 | 0.00 | 0.00 | 15 | 1014.8 |
| 20260507184456 | 90 | 223 | 1.7 | 5.2 | 0.00 | 0.00 | 0.00 | 16 | 1014.6 |
| 20260507183954 | 90 | 9 | 1.7 | 2.6 | 0.00 | 0.00 | 0.00 | 16 | 1014.9 |
| 20260507183450 | 90 | 144 | 2.6 | 5.2 | 0.00 | 0.00 | 0.00 | 16 | 1014.8 |
| 20260507182947 | 90 | 141 | 2.6 | 3.5 | 0.00 | 0.00 | 0.00 | 17 | 1014.9 |
| 20260507182443 | 89 | 176 | 3.5 | 7.0 | 0.00 | 0.00 | 0.00 | 17 | 1015.0 |
| 20260507181940 | 89 | 159 | 2.6 | 5.2 | 0.00 | 0.00 | 0.00 | 16 | 1015.0 |
| 20260507181436 | 89 | 199 | 1.7 | 5.2 | 0.00 | 0.00 | 0.00 | 18 | 1015.2 |
| 20260507180933 | 89 | 28 | 3.5 | 6.1 | 0.00 | 0.00 | 0.00 | 17 | 1015.1 |
| 20260507180430 | 90 | 169 | 0.0 | 1.7 | 0.00 | 0.00 | 0.00 | 17 | 1015.0 |
| 20260507175925 | 87 | 185 | 0.9 | 0.9 | 0.00 | 0.00 | 0.00 | 17 | 1015.3 |
| 20260507175422 | 88 | 131 | 1.7 | 3.5 | 0.00 | 0.00 | 0.00 | 18 | 1015.3 |
| 20260507174920 | 88 | 273 | 1.7 | 2.6 | 0.00 | 0.00 | 0.00 | 18 | 1015.4 |
| 20260507174417 | 86 | 185 | 0.0 | 1.7 | 0.00 | 0.00 | 0.00 | 17 | 1015.5 |
| 20260507173915 | 86 | 300 | 0.0 | 0.9 | 0.00 | 0.00 | 0.00 | 18 | 1015.5 |
| 20260507173411 | 86 | 204 | 0.0 | 3.5 | 0.00 | 0.00 | 0.00 | 18 | 1015.6 |
| 20260507172908 | 85 | 246 | 1.7 | 2.6 | 0.00 | 0.00 | 0.00 | 18 | 1015.5 |
| 20260507172405 | 86 | 156 | 1.7 | 2.6 | 0.00 | 0.00 | 0.00 | 18 | 1015.8 |
| 20260507171901 | 86 | 185 | 0.9 | 3.5 | 0.00 | 0.00 | 0.00 | 20 | 1015.6 |
| 20260507171357 | 86 | 176 | 0.9 | 3.5 | 0.00 | 0.00 | 0.00 | 20 | 1015.9 |
| 20260507170855 | 85 | 313 | 0.0 | 0.9 | 0.00 | 0.00 | 0.00 | 19 | 1015.9 |
| 20260507170351 | 85 | 297 | 0.0 | 1.7 | 0.00 | 0.00 | 0.00 | 20 | 1015.7 |
| 20260507165847 | 84 | 177 | 0.0 | 2.6 | 0.00 | 0.00 | 0.00 | 21 | 1015.8 |
| 20260507165343 | 84 | 216 | 0.9 | 1.7 | 0.00 | 0.00 | 0.00 | 22 | 1015.8 |
| 20260507164839 | 84 | 159 | 1.7 | 2.6 | 0.00 | 0.00 | 0.00 | 21 | 1016.0 |
| 20260507164336 | 83 | 203 | 0.0 | 0.0 | 0.00 | 0.00 | 0.00 | 21 | 1015.9 |
| 20260507163834 | 83 | 173 | 0.9 | 1.7 | 0.00 | 0.00 | 0.00 | 21 | 1016.1 |
| 20260507163331 | 82 | 45 | 0.9 | 2.6 | 0.00 | 0.00 | 0.00 | 21 | 1015.9 |
| 20260507162827 | 83 | 202 | 0.0 | 1.7 | 0.00 | 0.00 | 0.00 | 22 | 1016.2 |
| 20260507162323 | 81 | 52 | 1.7 | 2.6 | 0.00 | 0.00 | 0.00 | 22 | 1016.0 |
| 20260507161820 | 81 | 131 | 0.9 | 2.6 | 0.00 | 0.00 | 0.00 | 22 | 1016.0 |
| 20260507161317 | 81 | 186 | 0.0 | 0.9 | 0.00 | 0.00 | 0.00 | 22 | 1016.2 |
| 20260507160813 | 80 | 129 | 0.9 | 2.6 | 0.00 | 0.00 | 0.00 | 22 | 1016.2 |
| 20260507160309 | 79 | 173 | 0.0 | 1.7 | 0.00 | 0.00 | 0.00 | 23 | 1016.2 |
| 20260507155805 | 78 | 184 | 1.7 | 1.7 | 0.00 | 0.00 | 0.00 | 24 | 1016.3 |
| 20260507155301 | 78 | 191 | 1.7 | 1.7 | 0.00 | 0.00 | 0.00 | 23 | 1016.3 |
| 20260507154758 | 77 | 223 | 0.0 | 1.7 | 0.00 | 0.00 | 0.00 | 24 | 1016.3 |
| 20260507154256 | 77 | 194 | 0.9 | 1.7 | 0.00 | 0.00 | 0.00 | 24 | 1016.3 |
| 20260507153752 | 76 | 177 | 0.9 | 1.7 | 0.00 | 0.00 | 0.00 | 24 | 1016.2 |
| 20260507153248 | 76 | 191 | 1.7 | 2.6 | 0.00 | 0.00 | 0.00 | 26 | 1016.6 |
| 20260507152745 | 75 | 180 | 1.7 | 2.6 | 0.00 | 0.00 | 0.00 | 25 | 1016.5 |
| 20260507152242 | 75 | 145 | 1.7 | 1.7 | 0.00 | 0.00 | 0.00 | 26 | 1016.3 |
| 20260507151737 | 75 | 171 | 0.0 | 1.7 | 0.00 | 0.00 | 0.00 | 26 | 1016.3 |
| 20260507151234 | 74 | 175 | 0.0 | 1.7 | 0.00 | 0.00 | 0.00 | 27 | 1016.3 |
| 20260507150731 | 74 | 186 | 0.9 | 0.9 | 0.00 | 0.00 | 0.00 | 28 | 1016.2 |
| 20260507150228 | 73 | 207 | 0.0 | 1.7 | 0.00 | 0.00 | 0.00 | 28 | 1016.2 |
| 20260507145724 | 72 | 144 | 0.0 | 1.7 | 0.00 | 0.00 | 0.00 | 28 | 1016.0 |
| 20260507145221 | 71 | 158 | 0.9 | 1.7 | 0.00 | 0.00 | 0.00 | 30 | 1016.1 |
| 20260507144717 | 70 | 201 | 0.0 | 0.9 | 0.00 | 0.00 | 0.00 | 30 | 1016.1 |
| 20260507144215 | 70 | 221 | 0.0 | 0.9 | 0.00 | 0.00 | 0.00 | 29 | 1016.1 |
| 20260507143712 | 69 | 210 | 0.0 | 0.9 | 0.00 | 0.00 | 0.00 | 29 | 1016.3 |
| 20260507143209 | 69 | 184 | 0.9 | 0.9 | 0.00 | 0.00 | 0.00 | 29 | 1016.3 |
| 20260507142704 | 68 | 186 | 0.0 | 1.7 | 0.00 | 0.00 | 0.00 | 27 | 1016.1 |
| 20260507142201 | 68 | 160 | 0.9 | 1.7 | 0.00 | 0.00 | 0.00 | 27 | 1016.2 |
| 20260507141657 | 67 | 195 | 0.0 | 0.9 | 0.00 | 0.00 | 0.00 | 28 | 1016.1 |
| 20260507141154 | 66 | 209 | 0.0 | 0.9 | 0.00 | 0.00 | 0.00 | 30 | 1016.0 |
| 20260507140651 | 66 | 183 | 0.0 | 1.7 | 0.00 | 0.00 | 0.00 | 29 | 1016.0 |
| 20260507140149 | 64 | 187 | 0.0 | 0.0 | 0.00 | 0.00 | 0.00 | 29 | 1016.1 |
| 20260507135646 | 64 | 164 | 0.9 | 0.9 | 0.00 | 0.00 | 0.00 | 32 | 1016.0 |
| 20260507135143 | 64 | 187 | 0.0 | 0.9 | 0.00 | 0.00 | 0.00 | 31 | 1015.8 |
| 20260507134639 | 64 | 181 | 0.0 | 0.9 | 0.00 | 0.00 | 0.00 | 31 | 1015.7 |
| 20260507134135 | 63 | 189 | 0.0 | 0.9 | 0.00 | 0.00 | 0.00 | 33 | 1015.6 |
| 20260507133631 | 63 | 174 | 0.0 | 0.9 | 0.00 | 0.00 | 0.00 | 32 | 1015.6 |
| 20260507133129 | 63 | 225 | 0.0 | 0.0 | 0.00 | 0.00 | 0.00 | 32 | 1015.8 |
| 20260507132626 | 63 | 220 | 0.0 | 0.0 | 0.00 | 0.00 | 0.00 | 33 | 1015.8 |
| 20260507132122 | 63 | 209 | 0.0 | 0.0 | 0.00 | 0.00 | 0.00 | 32 | 1015.5 |
| 20260507131619 | 63 | 113 | 1.7 | 3.5 | 0.00 | 0.00 | 0.00 | 31 | 1015.7 |
| 20260507131116 | 63 | 152 | 1.7 | 3.5 | 0.00 | 0.00 | 0.00 | 31 | 1015.5 |
| 20260507130613 | 62 | 210 | 0.0 | 2.6 | 0.00 | 0.00 | 0.00 | 31 | 1015.8 |
| 20260507130111 | 62 | 245 | 1.7 | 3.5 | 0.00 | 0.00 | 0.00 | 32 | 1015.6 |
| 20260507125609 | 60 | 137 | 0.9 | 1.7 | 0.00 | 0.00 | 0.00 | 34 | 1015.8 |
| 20260507125107 | 60 | 140 | 1.7 | 2.6 | 0.00 | 0.00 | 0.00 | 34 | 1015.8 |
| 20260507124603 | 60 | 150 | 0.0 | 0.9 | 0.00 | 0.00 | 0.00 | 38 | 1015.5 |
| 20260507124101 | 60 | 192 | 0.0 | 1.7 | 0.00 | 0.00 | 0.00 | 38 | 1015.6 |
| 20260507123558 | 59 | 164 | 0.9 | 1.7 | 0.00 | 0.00 | 0.00 | 38 | 1015.6 |
| 20260507123055 | 59 | 180 | 0.0 | 0.0 | 0.00 | 0.00 | 0.00 | 40 | 1015.5 |
| 20260507122550 | 59 | 215 | 0.0 | 0.0 | 0.00 | 0.00 | 0.00 | 40 | 1015.6 |
| 20260507122046 | 60 | 182 | 0.0 | 0.0 | 0.00 | 0.00 | 0.00 | 40 | 1015.6 |
| 20260507121542 | 60 | 113 | 1.7 | 1.7 | 0.00 | 0.00 | 0.00 | 41 | 1015.4 |
| 20260507121039 | 60 | 175 | 0.0 | 0.9 | 0.00 | 0.00 | 0.00 | 39 | 1015.5 |
| 20260507120535 | 59 | 195 | 0.0 | 0.0 | 0.00 | 0.00 | 0.00 | 39 | 1015.4 |
| 20260507120032 | 59 | 204 | 0.0 | 0.0 | 0.00 | 0.00 | 0.00 | 39 | 1015.5 |
| 20260507115528 | 59 | 162 | 0.0 | 0.0 | 0.00 | 0.00 | 0.00 | 38 | 1015.6 |
| 20260507115024 | 60 | 203 | 0.0 | 0.0 | 0.00 | 0.00 | 0.00 | 37 | 1015.8 |
| 20260507114520 | 60 | 200 | 0.0 | 0.0 | 0.00 | 0.00 | 0.00 | 36 | 1015.5 |
| 20260507114017 | 60 | 209 | 0.0 | 0.0 | 0.00 | 0.00 | 0.00 | 36 | 1015.6 |
| 20260507113514 | 60 | 195 | 0.0 | 0.0 | 0.00 | 0.00 | 0.00 | 36 | 1015.7 |
| 20260507113012 | 61 | 161 | 0.0 | 0.0 | 0.00 | 0.00 | 0.00 | 39 | 1015.6 |
| 20260507112509 | 61 | 183 | 0.0 | 0.0 | 0.00 | 0.00 | 0.00 | 38 | 1015.6 |
| 20260507112006 | 61 | 224 | 0.0 | 0.0 | 0.00 | 0.00 | 0.00 | 35 | 1015.5 |
| 20260507111504 | 61 | 169 | 0.0 | 0.0 | 0.00 | 0.00 | 0.00 | 34 | 1015.6 |
| 20260507110959 | 61 | 146 | 0.0 | 0.0 | 0.00 | 0.00 | 0.00 | 33 | 1015.6 |
| 20260507110455 | 61 | 128 | 0.0 | 0.0 | 0.00 | 0.00 | 0.00 | 33 | 1015.7 |
| 20260507105952 | 62 | 229 | 0.0 | 0.0 | 0.00 | 0.00 | 0.00 | 33 | 1015.7 |
| 20260507105449 | 61 | 6 | 0.0 | 0.9 | 0.00 | 0.00 | 0.00 | 32 | 1015.8 |
| 20260507104946 | 61 | 219 | 0.0 | 0.0 | 0.00 | 0.00 | 0.00 | 35 | 1015.7 |
| 20260507104443 | 61 | 254 | 0.0 | 0.0 | 0.00 | 0.00 | 0.00 | 35 | 1015.8 |
| 20260507103938 | 60 | 222 | 0.0 | 0.0 | 0.00 | 0.00 | 0.00 | 41 | 1015.6 |
| 20260507103435 | 60 | 216 | 0.0 | 0.0 | 0.00 | 0.00 | 0.00 | 42 | 1015.7 |
| 20260507102931 | 60 | 218 | 0.0 | 0.0 | 0.00 | 0.00 | 0.00 | 41 | 1015.7 |
| 20260507102428 | 60 | 215 | 0.0 | 0.0 | 0.00 | 0.00 | 0.00 | 40 | 1015.7 |
| 20260507101925 | 61 | 211 | 0.0 | 0.0 | 0.00 | 0.00 | 0.00 | 40 | 1015.6 |
| 20260507101420 | 61 | 212 | 0.0 | 0.0 | 0.00 | 0.00 | 0.00 | 39 | 1015.8 |
| 20260507100917 | 61 | 209 | 0.0 | 0.0 | 0.00 | 0.00 | 0.00 | 38 | 1015.9 |
| 20260507100414 | 62 | 213 | 0.0 | 0.0 | 0.00 | 0.00 | 0.00 | 38 | 1016.0 |
| 20260507095913 | 62 | 208 | 0.0 | 0.0 | 0.00 | 0.00 | 0.00 | 38 | 1015.9 |
| 20260507095409 | 62 | 205 | 0.0 | 0.0 | 0.00 | 0.00 | 0.00 | 36 | 1016.0 |
| 20260507094906 | 62 | 212 | 0.0 | 0.0 | 0.00 | 0.00 | 0.00 | 34 | 1016.0 |
| 20260507094403 | 63 | 218 | 0.0 | 0.0 | 0.00 | 0.00 | 0.00 | 36 | 1016.0 |
| 20260507093859 | 63 | 208 | 0.0 | 0.0 | 0.00 | 0.00 | 0.00 | 36 | 1016.0 |
| 20260507093358 | 63 | 205 | 0.0 | 0.0 | 0.00 | 0.00 | 0.00 | 35 | 1016.0 |
| 20260507092856 | 64 | 199 | 0.0 | 0.0 | 0.00 | 0.00 | 0.00 | 33 | 1016.0 |
| 20260507092351 | 64 | 208 | 0.0 | 0.0 | 0.00 | 0.00 | 0.00 | 31 | 1015.9 |
| 20260507091848 | 65 | 221 | 0.0 | 0.0 | 0.00 | 0.00 | 0.00 | 29 | 1015.9 |
| 20260507091345 | 65 | 23 | 0.0 | 0.0 | 0.00 | 0.00 | 0.00 | 28 | 1016.1 |
| 20260507090840 | 65 | 345 | 0.0 | 0.9 | 0.00 | 0.00 | 0.00 | 29 | 1016.0 |
| 20260507090337 | 65 | 313 | 0.0 | 0.9 | 0.00 | 0.00 | 0.00 | 29 | 1016.1 |
| 20260507085834 | 64 | 257 | 0.9 | 0.9 | 0.00 | 0.00 | 0.00 | 31 | 1016.1 |
| 20260507085331 | 64 | 253 | 0.0 | 0.0 | 0.00 | 0.00 | 0.00 | 34 | 1016.0 |
| 20260507084828 | 65 | 221 | 0.0 | 0.0 | 0.00 | 0.00 | 0.00 | 33 | 1016.2 |
| 20260507084324 | 66 | 222 | 0.0 | 0.0 | 0.00 | 0.00 | 0.00 | 33 | 1016.2 |
| 20260507083822 | 66 | 235 | 0.0 | 0.0 | 0.00 | 0.00 | 0.00 | 33 | 1016.0 |
| 20260507083318 | 67 | 236 | 0.0 | 0.0 | 0.00 | 0.00 | 0.00 | 34 | 1016.2 |
| 20260507082814 | 67 | 240 | 0.0 | 0.0 | 0.00 | 0.00 | 0.00 | 31 | 1016.1 |
| 20260507082310 | 67 | 198 | 0.0 | 0.0 | 0.00 | 0.00 | 0.00 | 30 | 1016.3 |
| 20260507081808 | 67 | 199 | 0.0 | 0.0 | 0.00 | 0.00 | 0.00 | 31 | 1016.2 |
| 20260507081303 | 67 | 215 | 0.0 | 0.0 | 0.00 | 0.00 | 0.00 | 31 | 1016.2 |
| 20260507080800 | 68 | 220 | 0.0 | 0.0 | 0.00 | 0.00 | 0.00 | 30 | 1016.3 |
| 20260507080257 | 68 | 182 | 0.0 | 0.0 | 0.00 | 0.00 | 0.00 | 29 | 1016.3 |
| 20260507075752 | 68 | 143 | 0.0 | 0.9 | 0.00 | 0.00 | 0.00 | 29 | 1016.5 |
| 20260507075248 | 68 | 152 | 0.0 | 0.9 | 0.00 | 0.00 | 0.00 | 29 | 1016.2 |
| 20260507074744 | 68 | 203 | 0.0 | 0.0 | 0.00 | 0.00 | 0.00 | 30 | 1016.5 |
| 20260507074243 | 69 | 174 | 0.0 | 0.9 | 0.00 | 0.00 | 0.00 | 29 | 1016.5 |
| 20260507073739 | 69 | 161 | 0.0 | 0.9 | 0.00 | 0.00 | 0.00 | 30 | 1016.6 |
| 20260507073236 | 68 | 173 | 0.9 | 0.9 | 0.00 | 0.00 | 0.00 | 30 | 1016.5 |
| 20260507072734 | 68 | 184 | 0.0 | 0.0 | 0.00 | 0.00 | 0.00 | 30 | 1016.3 |
| 20260507072231 | 68 | 182 | 0.0 | 0.0 | 0.00 | 0.00 | 0.00 | 30 | 1016.6 |
| 20260507071728 | 68 | 211 | 0.0 | 0.0 | 0.00 | 0.00 | 0.00 | 30 | 1016.5 |
| 20260507071224 | 68 | 208 | 0.0 | 0.0 | 0.00 | 0.00 | 0.00 | 31 | 1016.6 |
| 20260507070721 | 68 | 207 | 0.0 | 0.0 | 0.00 | 0.00 | 0.00 | 32 | 1016.6 |
| 20260507070218 | 68 | 190 | 0.0 | 0.0 | 0.00 | 0.00 | 0.00 | 31 | 1016.6 |
| 20260507065715 | 68 | 211 | 0.0 | 0.0 | 0.00 | 0.00 | 0.00 | 31 | 1016.8 |
| 20260507065212 | 68 | 207 | 0.0 | 0.0 | 0.00 | 0.00 | 0.00 | 29 | 1016.6 |
| 20260507064709 | 68 | 196 | 0.0 | 0.0 | 0.00 | 0.00 | 0.00 | 30 | 1016.7 |
| 20260507064208 | 69 | 202 | 0.0 | 0.0 | 0.00 | 0.00 | 0.00 | 30 | 1016.8 |
| 20260507063705 | 69 | 197 | 0.0 | 0.0 | 0.00 | 0.00 | 0.00 | 30 | 1016.7 |
| 20260507063201 | 70 | 142 | 0.0 | 0.0 | 0.00 | 0.00 | 0.00 | 28 | 1016.7 |
| 20260507062658 | 71 | 188 | 0.0 | 0.0 | 0.00 | 0.00 | 0.00 | 28 | 1016.6 |
| 20260507062156 | 70 | 184 | 0.0 | 0.0 | 0.00 | 0.00 | 0.00 | 28 | 1016.6 |
| 20260507061654 | 71 | 185 | 0.0 | 0.0 | 0.00 | 0.00 | 0.00 | 28 | 1016.6 |
| 20260507061152 | 71 | 198 | 0.0 | 0.9 | 0.00 | 0.00 | 0.00 | 28 | 1016.7 |
| 20260507060649 | 70 | 116 | 0.0 | 0.9 | 0.00 | 0.00 | 0.00 | 29 | 1016.7 |
| 20260507060145 | 69 | 170 | 0.0 | 0.9 | 0.00 | 0.00 | 0.00 | 29 | 1016.7 |
| 20260507055641 | 69 | 196 | 0.0 | 0.0 | 0.00 | 0.00 | 0.00 | 29 | 1016.7 |
| 20260507055137 | 69 | 199 | 0.0 | 0.0 | 0.00 | 0.00 | 0.00 | 30 | 1016.6 |
| 20260507054633 | 70 | 196 | 0.0 | 0.0 | 0.00 | 0.00 | 0.00 | 29 | 1016.6 |
| 20260507054130 | 70 | 192 | 0.0 | 0.0 | 0.00 | 0.00 | 0.00 | 28 | 1016.7 |
| 20260507053628 | 71 | 189 | 0.0 | 0.0 | 0.00 | 0.00 | 0.00 | 29 | 1016.6 |
| 20260507053126 | 71 | 165 | 0.0 | 0.0 | 0.00 | 0.00 | 0.00 | 28 | 1016.5 |
| 20260507052624 | 70 | 162 | 0.0 | 0.0 | 0.00 | 0.00 | 0.00 | 28 | 1016.2 |
| 20260507052120 | 70 | 203 | 0.0 | 0.0 | 0.00 | 0.00 | 0.00 | 29 | 1016.5 |
| 20260507051618 | 71 | 202 | 0.0 | 0.0 | 0.00 | 0.00 | 0.00 | 29 | 1016.5 |
| 20260507051115 | 72 | 198 | 0.0 | 0.0 | 0.00 | 0.00 | 0.00 | 28 | 1016.2 |
| 20260507050611 | 72 | 188 | 0.0 | 1.7 | 0.00 | 0.00 | 0.00 | 27 | 1016.2 |
| 20260507050108 | 72 | 192 | 0.0 | 0.0 | 0.00 | 0.00 | 0.00 | 26 | 1016.3 |
| 20260507045605 | 72 | 183 | 0.0 | 0.0 | 0.00 | 0.00 | 0.00 | 27 | 1016.5 |
| 20260507045102 | 72 | 193 | 0.0 | 0.0 | 0.00 | 0.00 | 0.00 | 28 | 1016.2 |
| 20260507044558 | 72 | 200 | 0.0 | 0.0 | 0.00 | 0.00 | 0.00 | 27 | 1016.2 |
| 20260507044056 | 73 | 194 | 0.0 | 0.0 | 0.00 | 0.00 | 0.00 | 28 | 1016.1 |
| 20260507043551 | 73 | 199 | 0.0 | 0.9 | 0.00 | 0.00 | 0.00 | 28 | 1016.1 |
| 20260507043049 | 73 | 193 | 0.0 | 1.7 | 0.00 | 0.00 | 0.00 | 28 | 1016.0 |
| 20260507042544 | 72 | 186 | 0.0 | 0.0 | 0.00 | 0.00 | 0.00 | 29 | 1016.1 |
| 20260507042040 | 73 | 170 | 0.0 | 0.0 | 0.00 | 0.00 | 0.00 | 29 | 1016.0 |
| 20260507041537 | 73 | 194 | 0.0 | 0.0 | 0.00 | 0.00 | 0.00 | 29 | 1016.1 |
| 20260507041034 | 73 | 191 | 0.0 | 0.0 | 0.00 | 0.00 | 0.00 | 28 | 1015.9 |
| 20260507040531 | 74 | 191 | 0.0 | 0.9 | 0.00 | 0.00 | 0.00 | 27 | 1015.9 |
| 20260507040026 | 74 | 150 | 0.0 | 0.9 | 0.00 | 0.00 | 0.00 | 28 | 1015.7 |
| 20260507035523 | 74 | 199 | 0.0 | 1.7 | 0.00 | 0.00 | 0.00 | 28 | 1015.9 |
| 20260507035020 | 74 | 217 | 0.9 | 1.7 | 0.00 | 0.00 | 0.00 | 26 | 1015.6 |
| 20260507034517 | 75 | 197 | 0.0 | 0.9 | 0.00 | 0.00 | 0.00 | 26 | 1015.6 |
| 20260507034015 | 75 | 193 | 0.9 | 1.7 | 0.00 | 0.00 | 0.00 | 26 | 1015.7 |
| 20260507033512 | 75 | 191 | 0.0 | 0.9 | 0.00 | 0.00 | 0.00 | 25 | 1015.5 |
| 20260507033009 | 75 | 196 | 0.0 | 1.7 | 0.00 | 0.00 | 0.00 | 25 | 1015.4 |
| 20260507032506 | 75 | 147 | 1.7 | 2.6 | 0.00 | 0.00 | 0.00 | 25 | 1015.5 |
| 20260507032002 | 75 | 201 | 0.9 | 0.9 | 0.00 | 0.00 | 0.00 | 26 | 1015.3 |
| 20260507031458 | 76 | 180 | 0.0 | 0.9 | 0.00 | 0.00 | 0.00 | 26 | 1015.3 |
| 20260507030955 | 77 | 185 | 0.0 | 0.9 | 0.00 | 0.00 | 0.00 | 26 | 1015.2 |
| 20260507030452 | 77 | 190 | 0.0 | 1.7 | 0.00 | 0.00 | 0.00 | 24 | 1014.8 |
| 20260507025950 | 77 | 194 | 0.0 | 0.0 | 0.00 | 0.00 | 0.00 | 24 | 1014.9 |
| 20260507025447 | 78 | 194 | 0.9 | 0.9 | 0.00 | 0.00 | 0.00 | 24 | 1014.9 |
| 20260507024945 | 78 | 179 | 0.9 | 0.9 | 0.00 | 0.00 | 0.00 | 23 | 1015.0 |
| 20260507024442 | 78 | 195 | 0.0 | 0.0 | 0.00 | 0.00 | 0.00 | 24 | 1014.9 |
| 20260507023937 | 79 | 205 | 0.0 | 0.9 | 0.00 | 0.00 | 0.00 | 24 | 1014.9 |
| 20260507023434 | 80 | 216 | 0.0 | 0.0 | 0.00 | 0.00 | 0.00 | 22 | 1014.9 |
| 20260507022931 | 80 | 225 | 0.9 | 1.7 | 0.00 | 0.00 | 0.00 | 22 | 1014.7 |
| 20260507022429 | 80 | 193 | 1.7 | 1.7 | 0.00 | 0.00 | 0.00 | 22 | 1014.7 |
| 20260507021924 | 80 | 198 | 0.9 | 2.6 | 0.00 | 0.00 | 0.00 | 22 | 1014.6 |
| 20260507021420 | 81 | 181 | 0.9 | 1.7 | 0.00 | 0.00 | 0.00 | 22 | 1014.6 |
| 20260507020918 | 81 | 192 | 0.0 | 1.7 | 0.00 | 0.00 | 0.00 | 22 | 1014.6 |
| 20260507020414 | 81 | 194 | 0.0 | 1.7 | 0.00 | 0.00 | 0.00 | 22 | 1014.4 |
| 20260507015911 | 81 | 204 | 0.9 | 1.7 | 0.00 | 0.00 | 0.00 | 21 | 1014.5 |
| 20260507015409 | 82 | 185 | 1.7 | 2.6 | 0.00 | 0.00 | 0.00 | 22 | 1014.5 |
| 20260507014906 | 82 | 185 | 0.9 | 1.7 | 0.00 | 0.00 | 0.00 | 22 | 1014.6 |
| 20260507014402 | 82 | 181 | 0.0 | 1.7 | 0.00 | 0.00 | 0.00 | 21 | 1014.5 |
| 20260507013859 | 82 | 171 | 1.7 | 2.6 | 0.00 | 0.00 | 0.00 | 22 | 1014.6 |
| 20260507013356 | 83 | 199 | 1.7 | 3.5 | 0.00 | 0.00 | 0.00 | 21 | 1014.5 |
| 20260507012853 | 83 | 180 | 0.9 | 2.6 | 0.00 | 0.00 | 0.00 | 21 | 1014.5 |
| 20260507012350 | 83 | 224 | 0.9 | 2.6 | 0.00 | 0.00 | 0.00 | 21 | 1014.5 |
| 20260507011847 | 84 | 179 | 1.7 | 2.6 | 0.00 | 0.00 | 0.00 | 21 | 1014.7 |
| 20260507011344 | 84 | 207 | 2.6 | 2.6 | 0.00 | 0.00 | 0.00 | 21 | 1014.5 |
| 20260507010843 | 84 | 187 | 1.7 | 5.2 | 0.00 | 0.00 | 0.00 | 21 | 1014.7 |
| 20260507010339 | 84 | 211 | 1.7 | 2.6 | 0.00 | 0.00 | 0.00 | 20 | 1014.5 |
| 20260507005836 | 84 | 223 | 1.7 | 3.5 | 0.00 | 0.00 | 0.00 | 21 | 1014.7 |
| 20260507005333 | 84 | 173 | 1.7 | 3.5 | 0.00 | 0.00 | 0.00 | 21 | 1014.7 |
| 20260507004830 | 84 | 189 | 2.6 | 5.2 | 0.00 | 0.00 | 0.00 | 21 | 1014.6 |
| 20260507004327 | 85 | 198 | 1.7 | 5.2 | 0.00 | 0.00 | 0.00 | 20 | 1014.6 |
| 20260507003824 | 85 | 240 | 1.7 | 5.2 | 0.00 | 0.00 | 0.00 | 21 | 1014.7 |
| 20260507003319 | 85 | 211 | 1.7 | 2.6 | 0.00 | 0.00 | 0.00 | 20 | 1014.5 |
| 20260507002814 | 85 | 207 | 1.7 | 1.7 | 0.00 | 0.00 | 0.00 | 21 | 1014.5 |
| 20260507002311 | 86 | 210 | 2.6 | 6.1 | 0.00 | 0.00 | 0.00 | 20 | 1014.6 |
| 20260507001809 | 85 | 229 | 0.9 | 1.7 | 0.00 | 0.00 | 0.00 | 20 | 1014.4 |
| 20260507001306 | 86 | 215 | 2.6 | 2.6 | 0.00 | 0.00 | 0.00 | 20 | 1014.5 |
| 20260507000802 | 85 | 251 | 2.6 | 2.6 | 0.00 | 0.00 | 0.00 | 20 | 1014.6 |
| 20260507000259 | 86 | 188 | 0.9 | 2.6 | 0.00 | 0.00 | 0.00 | 19 | 1014.6 |
| 20260506235754 | 86 | 204 | 1.7 | 2.6 | 0.00 | 0.00 | 0.00 | 20 | 1014.7 |
| 20260506235250 | 85 | 210 | 1.7 | 2.6 | 0.00 | 0.00 | 0.00 | 20 | 1014.4 |
| 20260506234747 | 85 | 359 | 1.7 | 2.6 | 0.00 | 0.00 | 0.00 | 20 | 1014.6 |
| 20260506234245 | 85 | 207 | 1.7 | 3.5 | 0.00 | 0.00 | 0.00 | 20 | 1014.7 |
| 20260506233742 | 86 | 137 | 1.7 | 2.6 | 0.00 | 0.00 | 0.00 | 20 | 1014.7 |
| 20260506233238 | 85 | 183 | 1.7 | 3.5 | 0.00 | 0.00 | 0.00 | 21 | 1014.7 |
| 20260506232735 | 86 | 292 | 1.7 | 2.6 | 0.00 | 0.00 | 0.00 | 20 | 1014.7 |
| 20260506232230 | 86 | 353 | 1.7 | 1.7 | 0.00 | 0.00 | 0.00 | 19 | 1014.8 |
| 20260506231727 | 85 | 236 | 5.2 | 7.8 | 0.00 | 0.00 | 0.00 | 20 | 1014.8 |
| 20260506231226 | 86 | 29 | 1.7 | 5.2 | 0.00 | 0.00 | 0.00 | 20 | 1014.9 |
| 20260506230722 | 86 | 266 | 1.7 | 2.6 | 0.00 | 0.00 | 0.00 | 20 | 1015.0 |
| 20260506230219 | 86 | 195 | 1.7 | 2.6 | 0.00 | 0.00 | 0.00 | 19 | 1014.9 |
| 20260506225715 | 86 | 166 | 0.9 | 3.5 | 0.00 | 0.00 | 0.00 | 20 | 1015.0 |
| 20260506225212 | 86 | 243 | 1.7 | 3.5 | 0.00 | 0.00 | 0.00 | 20 | 1015.1 |
| 20260506224709 | 87 | 230 | 2.6 | 5.2 | 0.00 | 0.00 | 0.00 | 20 | 1015.1 |